Saltillo, Mexico

2:52 AM CST on January 21, 2018 (GMT -0600)
Plan De Guadalupe International

Weather History for MMIO - July, 2013

Change the Weather History Date:

Friday, July 5, 2013

  Actual Average Record
Temperature  
Mean Temperature 68 °F -  
Max Temperature 85 °F 81 °F 90 °F (2016)
Min Temperature 51 °F 65 °F 51 °F (2013)
Cooling Degree Days 3    
Growing Degree Days 18 (Base 50)    
Moisture  
Dew Point 57 °F    
Average Humidity 53    
Maximum Humidity 88    
Minimum Humidity 25    
Precipitation  
Precipitation 0.00 in - - ()
Sea Level Pressure  
Sea Level Pressure 29.99 in    
Wind  
Wind Speed 7 mph ()    
Max Wind Speed 18 mph    
Max Gust Speed -    
Visibility 8.7 miles    
Events      
Averages and records for this station are not official NWS values.
T = Trace of Precipitation, MM = Missing Value Source: Averaged Metar Reports

Daily Weather History Graph

Daily Weather History Graph

Search for Another Location

Airport or City:

Trip Planner

Search our weather history database for the weather conditions in past years. The results will help you decide how hot, cold, wet, or windy it might be!

Date:

Astronomy

Jul. 05, 2013 Rise Set
Actual Time 6:58 AM CDT 8:38 PM CDT
Civil Twilight 6:33 AM CDT 9:04 PM CDT
Nautical Twilight 6:02 AM CDT 9:35 PM CDT
Astronomical Twilight 5:29 AM CDT 10:07 PM CDT
Moon 4:54 AM CDT (7/5) 6:39 PM CDT (7/5)
Length of Visible Light 14h 31m
Length of Day
13h 39m
Waning Crescent, 6% of the Moon is Illuminated
Jul 5
Waning Crescent
Jul 8
New
Jul 15
First Quarter
Jul 22
Full
Jul 29
Last Quarter

Hourly Weather History & Observations

Time (CDT) Temp. Heat Index Dew Point Humidity Pressure Visibility Wind Dir Wind Speed Gust Speed Precip Events Conditions
12:40 AM 68.0 °F - 53.6 °F 60% 30.11 in 10.0 mi NNE 6.9 mph - N/A   Clear
12:48 AM 62 °F - 54 °F 66% 29.84 in 3 mi South 6.7 mph - -   Haze
3:48 AM 57 °F - 54 °F 86% 29.83 in 3 mi SW 4.5 mph - -   Clear
6:40 AM 64.4 °F - 60.8 °F 88% 30.10 in 10.0 mi Calm Calm - N/A   Clear
6:47 AM 54 °F - 48 °F 73% 29.89 in 9 mi SSW 2.2 mph - -   Haze
7:40 AM 68.0 °F - 62.6 °F 83% 30.13 in 6.0 mi Calm Calm - N/A   Clear
8:40 AM 71.6 °F - 60.8 °F 69% 30.13 in 6.0 mi SW 6.9 mph - N/A   Clear
9:40 AM 73.4 °F - 62.6 °F 69% 30.13 in 8.0 mi South 6.9 mph - N/A   Clear
9:48 AM 68 °F - 51 °F 45% 29.94 in 11 mi West 2.2 mph - -   Clear
10:40 AM 77.0 °F - 60.8 °F 57% 30.14 in 8.0 mi NNW 9.2 mph - N/A   Clear
11:40 AM 78.8 °F - 60.8 °F 54% 30.13 in 10.0 mi Calm Calm - N/A   Clear
12:40 PM 84.2 °F 87.3 °F 68.0 °F 58% 30.12 in 10.0 mi NE 11.5 mph - N/A   Clear
12:50 PM 77 °F - 52 °F 31% 29.90 in 11 mi South 8.9 mph - -   Haze
1:40 PM 86.0 °F 89.4 °F 68.0 °F 55% 30.09 in 10.0 mi North 13.8 mph - N/A   Clear
2:40 PM 86.0 °F 87.3 °F 64.4 °F 48% 30.05 in 10.0 mi North 9.2 mph - N/A   Clear
3:40 PM 86.0 °F 86.1 °F 60.8 °F 43% 30.03 in 8.0 mi North 13.8 mph - N/A   Clear
3:48 PM 83 °F - 53 °F 25% 29.77 in 11 mi South 13.4 mph - -   Haze
4:40 PM 86.0 °F 86.1 °F 60.8 °F 43% 30.02 in 8.0 mi North 17.3 mph - N/A   Clear
5:40 PM 86.0 °F 86.1 °F 60.8 °F 43% 30.00 in 10.0 mi NNE 17.3 mph - N/A   Clear
6:40 PM 82.4 °F 82.0 °F 57.2 °F 42% 30.00 in 10.0 mi NNE 17.3 mph - N/A   Clear
6:49 PM 77 °F - 51 °F 29% 29.66 in 11 mi South 17.9 mph - -   Haze
7:40 PM 80.6 °F 80.5 °F 55.4 °F 42% 30.00 in 10.0 mi NNE 17.3 mph - N/A   Clear
8:40 PM 77.0 °F - 51.8 °F 41% 30.03 in 10.0 mi NNE 17.3 mph - N/A   Clear
9:40 PM 75.2 °F - 51.8 °F 44% 30.04 in 10.0 mi NE 9.2 mph - N/A   Clear
9:50 PM 67 °F - 50 °F 45% 29.69 in 3 mi South 6.7 mph - -   Haze
10:40 PM 71.6 °F - 51.8 °F 50% 30.04 in 10.0 mi NE 9.2 mph - N/A   Clear
11:40 PM 71.6 °F - 51.8 °F 50% 30.04 in 10.0 mi NE 9.2 mph - N/A   Clear